Weather History for Sheridan, WY

Change the Weather History Date:

Thursday, November 29, 2012

  Actual Average Record
Temperature  
Mean Temperature 32 °F 26 °F  
Max Temperature 46 °F 39 °F 64 °F (1973)
Min Temperature 18 °F 14 °F -12 °F (1975)
Degree Days  
Heating Degree Days 33 39  
Month to date heating degree days 882 933  
Since 1 July heating degree days 1656 1841  
Cooling Degree Days 0 0  
Month to date cooling degree days 0 0  
Year to date cooling degree days 664 419  
Moisture  
Dew Point 27 °F    
Average Humidity 79    
Maximum Humidity 92    
Minimum Humidity 65    
Precipitation  
Precipitation T in 0.02 in 0.22 in (1976)
Month to date precipitation 1.09 0.69  
Year to date precipitation 9.03 13.58  
Sea Level Pressure  
Sea Level Pressure 29.97 in    
Wind  
Wind Speed 3 mph (SSW)    
Max Wind Speed 12 mph    
Max Gust Speed 17 mph    
Visibility 10 miles    
Events      
T = Trace of Precipitation, MM = Missing Value Source: NWS Daily Summary

Daily Weather History Graph

Daily Weather History Graph

Search for Another Location

Airport:

Trip Planner

Search our weather history database for the weather conditions in past years. The results will help you decide how hot, cold, wet, or windy it might be!

Date:

Astronomy

Nov. 29, 2012 Rise Set
Actual Time 7:23 AM MST 4:29 PM MST
Civil Twilight 6:50 AM MST 5:02 PM MST
Nautical Twilight 6:14 AM MST 5:38 PM MST
Astronomical Twilight 5:39 AM MST 6:13 PM MST
Moon 5:34 PM MST (11/29) 8:12 AM MST (11/29)
Length of Visible Light 10h 11m
Length of Day
9h 05m
Full, 99% of the Moon is Illuminated
Nov 29
Full
Dec 6
Last Quarter
Dec 13
New
Dec 19
First Quarter
Dec 28
Full

Hourly Weather History & Observations

Time (MST) Temp. Windchill Dew Point Humidity Pressure Visibility Wind Dir Wind Speed Gust Speed Precip Events Conditions
12:53 AM 19.9 °F - 16.0 °F 85% 29.94 in 10.0 mi Calm Calm - N/A   Clear
1:53 AM 21.9 °F 17.2 °F 19.0 °F 89% 29.94 in 10.0 mi SSW 3.5 mph - N/A   Clear
2:53 AM 21.2 °F 16.4 °F 19.4 °F 93% 29.82 in 10.0 mi Variable 3.5 mph - N/A   Clear
3:53 AM 26.1 °F 21.9 °F 23.0 °F 88% 29.95 in 10.0 mi WSW 3.5 mph - N/A   Clear
4:53 AM 30.0 °F - 26.1 °F 85% 29.95 in 10.0 mi Calm Calm - 0.00 in   Overcast
5:53 AM 32.0 °F 25.6 °F 28.0 °F 85% 29.95 in 10.0 mi NNE 6.9 mph - N/A   Overcast
6:53 AM 34.0 °F - 28.9 °F 82% 29.96 in 10.0 mi Calm Calm - N/A   Overcast
7:53 AM 37.0 °F 31.6 °F 28.9 °F 73% 29.98 in 10.0 mi WSW 6.9 mph - N/A   Overcast
8:53 AM 35.1 °F 32.2 °F 30.0 °F 82% 29.99 in 10.0 mi South 3.5 mph - N/A   Clear
9:53 AM 39.0 °F 34.0 °F 32.0 °F 76% 29.99 in 10.0 mi South 6.9 mph - N/A   Overcast
10:53 AM 43.0 °F - 32.0 °F 65% 29.98 in 10.0 mi Calm Calm - N/A   Mostly Cloudy
11:53 AM 45.0 °F - 33.1 °F 63% 29.97 in 10.0 mi Calm Calm - N/A   Partly Cloudy
12:53 PM 43.0 °F 38.8 °F 33.1 °F 68% 29.98 in 10.0 mi SSW 6.9 mph - N/A   Clear
1:53 PM 45.0 °F - 34.0 °F 65% 29.96 in 10.0 mi Calm Calm - N/A   Clear
2:53 PM 44.1 °F - 33.1 °F 65% 29.98 in 10.0 mi Calm Calm - N/A   Clear
3:53 PM 43.0 °F 41.3 °F 32.0 °F 65% 29.99 in 10.0 mi South 3.5 mph - N/A   Clear
4:53 PM 36.0 °F - 30.0 °F 79% 30.00 in 10.0 mi Calm Calm - N/A   Clear
5:53 PM 34.0 °F - 28.9 °F 82% 30.00 in 10.0 mi Calm Calm - N/A   Clear
6:53 PM 28.9 °F 25.2 °F 25.0 °F 85% 30.01 in 10.0 mi SSE 3.5 mph - N/A   Clear
7:53 PM 34.0 °F 31.0 °F 27.0 °F 75% 29.98 in 10.0 mi SSE 3.5 mph - N/A   Clear
8:53 PM 28.0 °F 21.7 °F 23.0 °F 81% 29.99 in 10.0 mi NNW 5.8 mph - N/A   Clear
9:53 PM 30.0 °F 23.2 °F 26.1 °F 85% 29.97 in 10.0 mi NNW 6.9 mph - N/A   Clear
10:53 PM 26.1 °F 20.5 °F 23.0 °F 88% 29.98 in 10.0 mi SW 4.6 mph - N/A   Clear
11:53 PM 28.0 °F 21.7 °F 23.0 °F 81% 29.95 in 10.0 mi SW 5.8 mph - N/A   Clear